CHINASAT 6C (ZX 6C) (44067 NORAD) Tracking and Keplerian Element Data

This shows tracking and keplerian element data for the satellite.

Feedback or suggestion? Click here.




ElementValue
Catalog44067
NameCHINASAT 6C (ZX 6C)
Epoch Orbit38
Epoch Day97.99646175
Epoch Year2019
RAAN256.7458
Inclination0.0688
Eccentricity0.0003683
Argument of Perigee39.9577
Mean Anonmoly28.0886
Mean Motion1.00277368
Decay Rate-3.38E-06
L11 44067U 19012A 19097.99646175 -.00000338 00000-0 00000-0 0 9992
L22 44067 0.0688 256.7458 0003683 39.9577 28.0886 1.00277368 389

Live tracking and technical data element details for CHINASAT 6C (ZX 6C) (NORAD 44067). CHINASAT 6C (ZX 6C) can be tracked NOW for your location showing map with azimuth and elevation plus other details from your city location.

Track the satellite on the map from your city or location and see movement details for azimuth, elevation, latitude, longitude, range, height, and movement on the map or in text.







IsCatalogInMostPopularTable: catalog: 44067, numindb: 51
Update: records affected: 1



GetName: 44067 CHINASAT 6C (ZX 6C)

Hit Count: updated at: Tue, 23 Jul 2019 03:05:13 GMT